Location: Cincinnati Observatory Center
(39.1389°N, 84.4225°W)
Time: 11:38:26
(UTC-05:00)

Amateur Radio Satellites - All Passes

Search period start: 01 February 2015 11:08
Search period end: 02 February 2015 11:08
Location: Cincinnati Observatory Center, 39.1389°N, 84.4225°W

Satellite Date Start Highest point End Downlink Frequencies (MHz)
Time Altitude Azimuth
HO-68 01 Feb 11:09:24 11:15:09 26° 299° (WNW) 11:20:43 435.675
QB50P2 01 Feb 11:14:35 11:18:44 48° 261° (W) 11:22:56 145.880/145.840
SO-50 01 Feb 11:16:37 11:20:22 23° 314° (NW) 11:24:09 436.795
BUGSAT 1 01 Feb 11:16:38 11:20:42 60° 259° (W) 11:24:50 437.445
DOVE 4 01 Feb 11:21:27 11:24:10 14° 297° (WNW) 11:26:36 437.250
BEESAT 2 01 Feb 11:22:08 11:26:14 58° 243° (WSW) 11:30:16 435.950
ANTELSAT 01 Feb 11:22:37 11:26:38 26° 265° (W) 11:30:33 437.575/2403.000
QB50P1 01 Feb 11:22:51 11:26:54 39° 262° (W) 11:30:56 145.935-145.965
ZACube-1 01 Feb 11:23:58 11:28:06 40° 288° (WNW) 11:32:05 437.345
GOMX 1 01 Feb 11:26:56 11:27:48 10° 300° (WNW) 11:28:20 467.674
DX 1 01 Feb 11:27:19 11:31:18 33° 289° (WNW) 11:35:14 434.975-435.025
TIGRISAT 01 Feb 11:28:33 11:32:23 24° 266° (W) 11:36:06 435.000
RS-15 01 Feb 11:29:12 11:37:51 25° 27° (NNE) 11:47:02 29.354- 29.394
CUBEBUG 2 01 Feb 11:31:44 11:35:26 25° 291° (WNW) 11:38:58 437.445
BEESAT 3 01 Feb 11:32:56 11:36:49 38° 245° (WSW) 11:40:35 437.485
FUNcube-1 01 Feb 11:34:57 11:38:51 31° 289° (WNW) 11:42:36 145.935
AIST 2 01 Feb 11:35:32 11:39:50 78° 58° (ENE) 11:44:03 435.215
POLYITAN 1 01 Feb 11:40:31 11:44:08 25° 265° (W) 11:47:42 437.675
50 SAT 01 Feb 11:40:49 11:44:49 61° 285° (WNW) 11:48:45 437.505
AIST 1 01 Feb 11:56:15 12:00:21 45° 281° (WNW) 12:04:28
POPSAT HIP 1 01 Feb 11:59:43 12:02:30 16° 269° (W) 12:05:07 437.405
DUCHIFAT 1 01 Feb 12:00:20 12:03:05 16° 269° (W) 12:05:40 145.980
PHONESAT 2.4 01 Feb 12:02:52 12:06:29 85° 194° (SSW) 12:10:08 2401.200-2431.200
SPROUT 01 Feb 12:04:25 12:07:43 21° 93° (E) 12:11:06 437.525
UWE-3 01 Feb 12:05:46 12:08:01 13° 295° (WNW) 12:10:02 435.000/436.395/437.385
AISAT 01 Feb 12:08:02 12:12:06 33° 289° (WNW) 12:16:05 437.250
ESTCUBE 1 01 Feb 12:21:28 12:25:54 53° 286° (WNW) 12:30:19 437.505/2401.250
VERMONT LUNAR 01 Feb 12:21:50 12:25:12 46° 203° (SSW) 12:28:34 437.305
Oscar 19 01 Feb 12:22:23 12:26:30 25° 67° (ENE) 12:30:43 437.125/150
PCSat 01 Feb 12:24:11 12:28:43 27° 50° (NE) 12:33:18 145.827
TISAT 1 01 Feb 12:29:09 12:33:11 39° 98° (E) 12:37:12 437.305
CUBEBUG 1 01 Feb 12:32:09 12:36:23 43° 288° (WNW) 12:40:35 437.445
VELOX 1 01 Feb 12:35:14 12:38:22 18° 293° (WNW) 12:41:23 145.980
GONETS M04 01 Feb 12:35:51 12:44:32 71° 80° (E) 12:53:13
HUMSAT D 01 Feb 12:38:09 12:39:51 12° 295° (WNW) 12:41:21 437.325/437.525
ITAMSAT 1 01 Feb 12:47:37 12:50:26 15° 63° (ENE) 12:53:29 435.822/435.867
SWISSCUBE 01 Feb 12:54:27 12:56:04 12° 89° (E) 12:57:59 437.505
BEESAT 01 Feb 13:08:34 13:11:22 16° 91° (E) 13:14:22 436.000
ITUPSAT 1 01 Feb 13:14:22 13:17:32 18° 92° (E) 13:20:53 437.325
SPROUT 01 Feb 13:40:01 13:43:53 31° 289° (WNW) 13:47:41 437.525
RS-15 01 Feb 13:41:29 13:52:51 71° 55° (NE) 14:04:46 29.354- 29.394
PHONESAT 2.4 01 Feb 13:41:45 13:44:49 25° 209° (SSW) 13:47:51 2401.200-2431.200
DANDE 01 Feb 13:59:43 14:01:45 12° 54° (NE) 14:03:56 436.750
Oscar 19 01 Feb 14:00:49 14:05:40 39° 263° (W) 14:10:31 437.125/150
VERMONT LUNAR 01 Feb 14:02:07 14:02:48 10° 216° (SW) 14:03:22 437.305
Gurwin Techsat 1B 01 Feb 14:02:27 14:07:34 52° 72° (ENE) 14:12:45 435.225
TISAT 1 01 Feb 14:05:48 14:08:45 18° 293° (WNW) 14:11:32 437.305
PCSat 01 Feb 14:07:11 14:12:21 44° 248° (WSW) 14:17:26 145.827
CUSAT 1 01 Feb 14:09:11 14:12:25 16° 59° (ENE) 14:15:23 437.405
KKS-1 01 Feb 14:10:24 14:12:19 13° 89° (E) 14:14:27 437.445
AO-7 01 Feb 14:18:49 14:25:06 25° 57° (ENE) 14:31:39 29.400- 29.500
ITAMSAT 1 01 Feb 14:24:18 14:29:27 67° 259° (W) 14:34:38 435.822/435.867
SWISSCUBE 01 Feb 14:29:44 14:34:30 67° 285° (WNW) 14:39:15 437.505
GONETS M04 01 Feb 14:34:10 14:40:39 23° 278° (W) 14:46:46
BEESAT 01 Feb 14:44:57 14:49:35 50° 287° (WNW) 14:54:11 436.000
O/OREOS (USA 219) 01 Feb 14:47:21 14:49:00 12° 100° (E) 14:50:55 437.305
ITUPSAT 1 01 Feb 14:51:08 14:55:43 45° 288° (WNW) 15:00:16 437.325
HORYU 2 01 Feb 14:56:44 15:01:06 53° 74° (ENE) 15:05:31 437.375
STARS 01 Feb 15:30:29 15:34:56 66° 101° (ESE) 15:39:20 437.465
AUBIESAT-1 01 Feb 15:35:41 15:37:55 17° 100° (E) 15:40:19 437.475
DANDE 01 Feb 15:40:35 15:46:46 83° 264° (W) 15:51:14 436.750
Gurwin Techsat 1B 01 Feb 15:44:13 15:47:56 18° 269° (W) 15:51:28 435.225
KKS-1 01 Feb 15:45:00 15:49:24 55° 286° (WNW) 15:53:46 437.445
CUSAT 1 01 Feb 15:50:51 15:56:19 51° 267° (W) 16:00:21 437.405
RS-15 01 Feb 15:54:49 16:04:38 33° 253° (WSW) 16:14:23 29.354- 29.394
AO-7 01 Feb 16:08:50 16:17:12 75° 254° (WSW) 16:25:37 29.400- 29.500
MOZHAYETS 4 01 Feb 16:15:24 16:16:49 12° 88° (E) 16:18:31
O/OREOS (USA 219) 01 Feb 16:23:32 16:27:58 58° 294° (WNW) 16:32:26 437.305
JAS-2 01 Feb 16:29:27 16:34:52 77° 76° (ENE) 16:40:04 435.910
HORYU 2 01 Feb 16:35:52 16:38:10 13° 270° (W) 16:40:15 437.375
M-CUBED/EXP-1 PRIME 01 Feb 16:39:33 16:42:50 53° 290° (WNW) 16:46:15 437.505
Cubesat XI-IV 01 Feb 16:57:12 17:00:53 20° 65° (ENE) 17:04:44 437.490
STARS 01 Feb 17:09:11 17:10:55 12° 296° (WNW) 17:12:25 437.465
AUBIESAT-1 01 Feb 17:10:06 17:12:54 24° 293° (WNW) 17:15:44 437.475
CUTE-I 01 Feb 17:15:13 17:19:38 28° 68° (ENE) 17:24:12 437.470
JUGNU 01 Feb 17:21:21 17:22:30 11° 176° (S) 17:23:41 437.505
MOZHAYETS 4 01 Feb 17:50:03 17:54:34 63° 285° (WNW) 17:59:06
SO-50 01 Feb 18:07:45 18:12:09 32° 49° (NE) 18:16:35 436.795
AO-7 01 Feb 18:07:55 18:11:35 13° 274° (W) 18:14:32 29.400- 29.500
STRAND 1 01 Feb 18:15:55 18:17:48 12° 88° (E) 18:20:00 437.568
CUBESAT XI-V 01 Feb 18:16:51 18:19:59 18° 91° (E) 18:23:18 437.345
JAS-2 01 Feb 18:19:20 18:20:43 11° 272° (W) 18:21:43 435.910
PRISM 01 Feb 18:22:34 18:26:00 25° 95° (E) 18:29:31 437.425
Cubesat XI-IV 01 Feb 18:35:26 18:40:37 52° 260° (W) 18:45:51 437.490
CUTE-I 01 Feb 18:54:46 18:59:37 35° 263° (W) 19:04:28 437.470
GOMX 1 01 Feb 19:17:01 19:19:04 13° 62° (ENE) 19:21:27 467.674
CUTE 1.7 + AOD 2 01 Feb 19:30:27 19:32:08 12° 66° (ENE) 19:34:03 437.475
YUBILEINY 01 Feb 19:31:53 19:40:23 64° 93° (E) 19:48:58 435.215
BRITE-PL 01 Feb 19:38:14 19:42:34 28° 68° (ENE) 19:47:15 437.365/2234.400
HO-68 01 Feb 19:48:13 19:54:44 41° 66° (ENE) 20:01:20 435.675
SO-50 01 Feb 19:48:18 19:52:43 33° 246° (WSW) 19:57:03 436.795
STRAND 1 01 Feb 19:52:29 19:57:39 73° 286° (WNW) 20:02:47 437.568
CUBESAT XI-V 01 Feb 19:53:14 19:57:41 43° 288° (WNW) 20:02:08 437.345
SEEDS 01 Feb 19:54:20 19:57:20 19° 69° (ENE) 20:00:25 437.485
SRMSAT 01 Feb 19:56:29 19:58:08 11° 182° (S) 19:59:46 437.500
PRISM 01 Feb 19:58:03 20:01:29 25° 291° (WNW) 20:04:51 437.425
CINEMA 3 01 Feb 20:06:53 20:09:36 15° 65° (ENE) 20:12:33 145.822/145.860
COMPASS 1 01 Feb 20:14:46 20:18:17 27° 71° (ENE) 20:21:52 437.405
AAUSAT CUBESAT 2 01 Feb 20:37:37 20:41:35 42° 73° (ENE) 20:45:33 437.432
CANX-2 01 Feb 20:39:45 20:44:03 83° 77° (ENE) 20:48:21 2200.000
ZACube-1 01 Feb 20:44:37 20:46:49 14° 65° (ENE) 20:49:13 437.345
DOVE 4 01 Feb 20:45:36 20:50:37 62° 75° (ENE) 20:55:53 437.250
DX 1 01 Feb 20:47:06 20:49:48 17° 66° (ENE) 20:52:39 434.975-435.025
GOMX 1 01 Feb 20:51:17 20:56:26 86° 258° (WSW) 21:01:55 467.674
CUBEBUG 2 01 Feb 20:52:10 20:55:55 24° 69° (ENE) 20:59:48 437.445
FUNcube-1 01 Feb 20:54:29 20:57:22 17° 67° (ENE) 21:00:25 145.935
CUTE 1.7 + AOD 2 01 Feb 21:03:26 21:07:40 57° 260° (W) 21:11:53 437.475
ISS 01 Feb 21:05:07 21:08:23 81° 325° (NW) 21:11:41 145.825
BRITE-PL 01 Feb 21:16:11 21:20:56 36° 265° (W) 21:25:57 437.365/2234.400
Oscar 11 01 Feb 21:18:23 21:22:39 60° 75° (ENE) 21:26:57 145.826/435.025
UWE-3 01 Feb 21:23:18 21:27:42 41° 73° (ENE) 21:32:08 435.000/436.395/437.385
SEEDS 01 Feb 21:29:04 21:32:58 34° 263° (W) 21:36:50 437.485
AISAT 01 Feb 21:29:37 21:32:38 19° 67° (ENE) 21:35:48 437.250
YUBILEINY 01 Feb 21:30:45 21:37:57 27° 293° (WNW) 21:44:54 435.215
HO-68 01 Feb 21:35:57 21:42:30 37° 263° (W) 21:49:00 435.675
CINEMA 3 01 Feb 21:41:22 21:46:18 64° 260° (W) 21:51:21 145.822/145.860
DELFI C3 01 Feb 21:45:58 21:50:03 80° 256° (WSW) 21:54:08 145.870
ESTCUBE 1 01 Feb 21:46:25 21:47:58 12° 64° (ENE) 21:49:47 437.505/2401.250
COMPASS 1 01 Feb 21:50:32 21:54:00 24° 266° (W) 21:57:23 437.405
HUMSAT D 01 Feb 21:51:18 21:55:16 36° 72° (ENE) 21:59:17 437.325/437.525
CUBEBUG 1 01 Feb 21:53:35 21:55:24 13° 65° (ENE) 21:57:26 437.445
VELOX 1 01 Feb 21:54:46 21:58:41 32° 70° (ENE) 22:02:42 145.980
UKube-1 01 Feb 21:55:49 22:00:09 89° 243° (WSW) 22:04:31 .
AIST 1 01 Feb 22:04:31 22:08:33 36° 77° (ENE) 22:12:37
AAUSAT CUBESAT 2 01 Feb 22:15:00 22:17:30 15° 269° (W) 22:19:49 437.432
ZACube-1 01 Feb 22:18:11 22:22:45 61° 260° (W) 22:27:19 437.345
DX 1 01 Feb 22:21:36 22:25:46 43° 261° (W) 22:29:56 434.975-435.025
DOVE 4 01 Feb 22:25:51 22:28:56 15° 272° (W) 22:31:50 437.250
50 SAT 01 Feb 22:26:43 22:30:49 68° 76° (ENE) 22:34:56 437.505
CUBEBUG 2 01 Feb 22:28:06 22:32:28 35° 264° (W) 22:36:50 437.445
FUNcube-1 01 Feb 22:28:57 22:33:24 47° 262° (W) 22:37:51 145.935
UNISAT 6 01 Feb 22:39:28 22:43:14 28° 95° (E) 22:46:59 437.425
ISS 01 Feb 22:43:10 22:45:18 16° 340° (NNW) 22:47:25 145.825
NANOSAT C BR1 01 Feb 22:45:29 22:48:28 19° 92° (E) 22:51:34 145.865
Oscar 11 01 Feb 22:58:00 22:59:20 11° 272° (W) 23:00:22 145.826/435.025
SPROUT 01 Feb 22:58:37 23:01:07 16° 67° (ENE) 23:03:47 437.525
BUGSAT 1 01 Feb 23:00:52 23:04:08 21° 94° (E) 23:07:29 437.445
UWE-3 01 Feb 23:01:03 23:04:27 19° 268° (W) 23:07:43 435.000/436.395/437.385
QB50P2 01 Feb 23:01:33 23:05:18 29° 95° (E) 23:09:04 145.880/145.840
AISAT 01 Feb 23:04:48 23:09:00 40° 262° (W) 23:13:13 437.250
QB50P1 01 Feb 23:09:20 23:13:16 35° 97° (E) 23:17:13 145.935-145.965
ANTELSAT 01 Feb 23:15:21 23:19:45 73° 102° (ESE) 23:24:03 437.575/2403.000
ESTCUBE 1 01 Feb 23:19:56 23:24:23 66° 259° (W) 23:28:52 437.505/2401.250
TIGRISAT 01 Feb 23:20:42 23:25:08 82° 100° (E) 23:29:28 435.000
TISAT 1 01 Feb 23:20:57 23:24:27 26° 70° (ENE) 23:28:04 437.305
POLYITAN 1 01 Feb 23:26:36 23:30:52 57° 100° (E) 23:35:04 437.675
CUBEBUG 1 01 Feb 23:27:03 23:31:20 58° 259° (W) 23:35:41 437.445
HUMSAT D 01 Feb 23:28:05 23:31:13 19° 268° (W) 23:34:14 437.325/437.525
VELOX 1 01 Feb 23:31:54 23:35:22 21° 267° (W) 23:38:44 145.980
AIST 1 01 Feb 23:43:02 23:45:58 17° 272° (W) 23:48:45
GONETS M04 01 Feb 23:43:58 23:47:57 15° 79° (E) 23:52:35
POPSAT HIP 1 01 Feb 23:44:25 23:48:45 90° 284° (WNW) 23:53:02 437.405
DUCHIFAT 1 01 Feb 23:44:40 23:49:00 90° 286° (WNW) 23:53:16 145.980
SWISSCUBE 02 Feb 00:00:26 00:02:34 13° 64° (ENE) 00:04:57 437.505
BEESAT 02 Feb 00:14:30 00:17:28 17° 66° (ENE) 00:20:38 436.000
UNISAT 6 02 Feb 00:16:22 00:19:58 24° 291° (WNW) 00:23:25 437.425
NANOSAT C BR1 02 Feb 00:20:34 00:24:30 35° 288° (WNW) 00:28:21 145.865
ITUPSAT 1 02 Feb 00:20:35 00:23:52 19° 66° (ENE) 00:27:19 437.325
SPROUT 02 Feb 00:32:44 00:36:53 45° 262° (W) 00:41:04 437.525
BUGSAT 1 02 Feb 00:35:53 00:39:41 30° 289° (WNW) 00:43:25 437.445
QB50P2 02 Feb 00:37:41 00:41:07 23° 291° (WNW) 00:44:26 145.880/145.840
QB50P1 02 Feb 00:45:50 00:48:58 19° 292° (WNW) 00:51:58 145.935-145.965
ANTELSAT 02 Feb 00:55:13 00:56:00 10° 297° (WNW) 00:56:32 437.575/2403.000
O/OREOS (USA 219) 02 Feb 00:55:57 00:59:29 22° 58° (ENE) 01:03:07 437.305
TISAT 1 02 Feb 00:56:43 01:00:16 25° 266° (W) 01:03:45 437.305
POLYITAN 1 02 Feb 01:04:22 01:06:23 13° 295° (WNW) 01:08:11 437.675
KKS-1 02 Feb 01:08:52 01:10:11 11° 64° (ENE) 01:11:45 437.445
BEESAT 2 02 Feb 01:15:59 01:19:41 34° 115° (ESE) 01:23:29 435.950
BEESAT 3 02 Feb 01:25:37 01:29:34 51° 117° (ESE) 01:33:37 437.485
AIST 2 02 Feb 01:33:34 01:36:48 22° 112° (ESE) 01:40:08 435.215
GONETS M04 02 Feb 01:34:53 01:43:39 84° 96° (E) 01:52:24
SWISSCUBE 02 Feb 01:35:14 01:39:57 66° 259° (WSW) 01:44:43 437.505
BEESAT 02 Feb 01:50:22 01:55:00 49° 261° (W) 01:59:37 436.000
M-CUBED/EXP-1 PRIME 02 Feb 01:55:32 01:56:55 12° 63° (ENE) 01:58:26 437.505
ITUPSAT 1 02 Feb 01:56:59 02:01:31 43° 261° (W) 02:06:03 437.325
ISS 02 Feb 01:58:15 02:00:27 17° 20° (NNE) 02:02:41 145.825
Oscar 19 02 Feb 02:13:05 02:18:16 82° 102° (ESE) 02:23:24 437.125/150
Gurwin Techsat 1B 02 Feb 02:20:27 02:24:31 23° 93° (E) 02:28:43 435.225
AUBIESAT-1 02 Feb 02:23:34 02:26:33 22° 67° (ENE) 02:29:26 437.475
STARS 02 Feb 02:26:24 02:30:41 50° 73° (ENE) 02:35:02 437.465
O/OREOS (USA 219) 02 Feb 02:34:49 02:39:03 36° 255° (WSW) 02:43:14 437.305
ITAMSAT 1 02 Feb 02:38:19 02:43:22 48° 99° (E) 02:48:26 435.822/435.867
KKS-1 02 Feb 02:41:51 02:46:19 71° 258° (WSW) 02:50:50 437.445
HORYU 2 02 Feb 02:51:57 02:53:01 11° 89° (E) 02:54:22 437.375
BEESAT 2 02 Feb 02:54:39 02:58:00 23° 312° (NW) 03:01:20 435.950
PCSat 02 Feb 03:05:06 03:09:34 28° 109° (ESE) 03:14:11 145.827
BEESAT 3 02 Feb 03:05:14 03:08:02 17° 315° (NW) 03:10:45 437.485
DANDE 02 Feb 03:05:54 03:12:20 26° 86° (E) 03:19:11 436.750
AIST 2 02 Feb 03:11:18 03:15:14 35° 308° (NW) 03:19:12 435.215
CUSAT 1 02 Feb 03:12:13 03:19:18 33° 89° (E) 03:26:32 437.405
MOZHAYETS 4 02 Feb 03:17:43 03:18:36 11° 64° (ENE) 03:19:44
M-CUBED/EXP-1 PRIME 02 Feb 03:27:51 03:31:41 47° 255° (WSW) 03:35:14 437.505
ISS 02 Feb 03:34:02 03:37:21 87° 34° (NNE) 03:40:38 145.825
GONETS M04 02 Feb 03:35:34 03:41:47 20° 297° (WNW) 03:47:32
Oscar 19 02 Feb 03:54:51 03:57:00 12° 298° (WNW) 03:58:53 437.125/150
AUBIESAT-1 02 Feb 03:58:16 04:01:27 23° 259° (WSW) 04:04:22 437.475
Gurwin Techsat 1B 02 Feb 03:59:42 04:04:43 43° 289° (WNW) 04:09:41 435.225
RS-15 02 Feb 04:03:58 04:14:10 49° 111° (ESE) 04:24:32 29.354- 29.394
STARS 02 Feb 04:05:05 04:07:32 14° 270° (W) 04:09:47 437.465
AO-7 02 Feb 04:12:02 04:19:43 41° 98° (E) 04:27:26 29.400- 29.500
ITAMSAT 1 02 Feb 04:18:41 04:22:35 21° 295° (WNW) 04:26:19 435.822/435.867
HORYU 2 02 Feb 04:25:48 04:30:14 62° 285° (WNW) 04:34:35 437.375
DANDE 02 Feb 04:46:48 04:55:13 72° 282° (WNW) 05:03:47 436.750
PCSat 02 Feb 04:47:46 04:52:51 39° 306° (NW) 04:57:56 145.827
MOZHAYETS 4 02 Feb 04:50:42 04:55:18 77° 260° (W) 04:59:53
CUSAT 1 02 Feb 04:53:51 05:02:04 57° 284° (WNW) 05:10:08 437.405
PRISM 02 Feb 05:13:04 05:15:41 17° 67° (ENE) 05:18:26 437.425
CUBESAT XI-V 02 Feb 05:20:05 05:22:48 16° 66° (ENE) 05:25:43 437.345
JAS-2 02 Feb 05:22:36 05:28:30 76° 102° (ESE) 05:35:13 435.910
STRAND 1 02 Feb 05:30:26 05:33:36 17° 64° (ENE) 05:36:58 437.568
CUTE-I 02 Feb 05:35:24 05:36:56 11° 87° (E) 05:38:51 437.470
YUBILEINY 02 Feb 05:43:51 05:51:10 29° 68° (ENE) 05:58:42 435.215
AO-7 02 Feb 06:04:48 06:12:35 45° 296° (WNW) 06:20:14 29.400- 29.500
RS-15 02 Feb 06:16:07 06:26:37 49° 314° (NW) 06:37:11 29.354- 29.394
PHONESAT 2.4 02 Feb 06:33:30 06:35:06 13° 145° (SE) 06:36:48 2401.200-2431.200
DANDE 02 Feb 06:35:05 06:40:16 16° 301° (WNW) 06:44:54 436.750
CUSAT 1 02 Feb 06:44:04 06:46:58 11° 304° (NW) 06:49:11 437.405
VERMONT LUNAR 02 Feb 06:45:26 06:48:21 26° 152° (SSE) 06:51:18 437.305
PRISM 02 Feb 06:47:09 06:50:58 36° 262° (W) 06:54:47 437.425
Cubesat XI-IV 02 Feb 06:53:40 06:59:02 70° 101° (ESE) 07:04:25 437.490
CUBESAT XI-V 02 Feb 06:55:26 06:59:54 49° 261° (W) 07:04:24 437.345
STRAND 1 02 Feb 07:07:24 07:12:24 56° 260° (W) 07:17:27 437.568
JAS-2 02 Feb 07:09:33 07:13:14 17° 295° (WNW) 07:16:53 435.910
CUTE-I 02 Feb 07:12:22 07:17:47 81° 285° (WNW) 07:23:09 437.470
YUBILEINY 02 Feb 07:39:59 07:48:35 59° 268° (W) 07:57:08 435.215
BRITE-PL 02 Feb 07:47:49 07:48:04 10° 83° (E) 07:48:46 437.365/2234.400
PHONESAT 2.4 02 Feb 08:09:41 08:13:11 53° 159° (SSE) 08:16:43 2401.200-2431.200
VERMONT LUNAR 02 Feb 08:22:45 08:26:13 88° 167° (SSE) 08:29:43 437.305
SO-50 02 Feb 08:24:42 08:25:49 11° 108° (ESE) 08:27:13 436.795
CANX-2 02 Feb 08:27:49 08:30:14 15° 91° (E) 08:32:49 2200.000
RS-15 02 Feb 08:35:15 08:42:45 20° 345° (NNW) 08:50:11 29.354- 29.394
Cubesat XI-IV 02 Feb 08:35:26 08:38:38 16° 297° (WNW) 08:41:36 437.490
DOVE 4 02 Feb 08:47:37 08:51:08 19° 90° (E) 08:54:41 437.250
CUTE 1.7 + AOD 2 02 Feb 08:50:28 08:53:58 25° 94° (E) 08:57:29 437.475
GOMX 1 02 Feb 08:55:16 09:00:03 34° 94° (E) 09:04:38 467.674
CUTE-I 02 Feb 08:55:51 08:57:07 11° 300° (WNW) 08:58:02 437.470
HO-68 02 Feb 09:04:03 09:10:51 46° 99° (E) 09:17:42 435.675
Oscar 11 02 Feb 09:09:10 09:10:36 12° 89° (E) 09:12:17 145.826/435.025
SEEDS 02 Feb 09:14:34 09:18:31 40° 98° (E) 09:22:28 437.485
BRITE-PL 02 Feb 09:21:55 09:27:35 88° 101° (E) 09:32:54 437.365/2234.400
DELFI C3 02 Feb 09:28:43 09:31:02 15° 91° (E) 09:33:30 145.870
COMPASS 1 02 Feb 09:34:34 09:38:41 58° 100° (E) 09:42:47 437.405
BEESAT 2 02 Feb 09:37:14 09:40:08 18° 45° (NE) 09:43:07 435.950
UNISAT 6 02 Feb 09:37:31 09:41:17 25° 69° (ENE) 09:45:06 437.425
CINEMA 3 02 Feb 09:38:26 09:42:43 34° 95° (E) 09:46:52 145.822/145.860
NANOSAT C BR1 02 Feb 09:38:30 09:40:30 13° 65° (ENE) 09:42:42 145.865
UKube-1 02 Feb 09:45:56 09:48:40 17° 92° (E) 09:51:34 .
BEESAT 3 02 Feb 09:46:26 09:49:50 24° 48° (NE) 09:53:15 437.485
PHONESAT 2.4 02 Feb 09:48:08 09:51:44 71° 355° (N) 09:55:21 2401.200-2431.200
BUGSAT 1 02 Feb 09:51:27 09:53:28 14° 66° (ENE) 09:55:41 437.445
QB50P2 02 Feb 09:54:13 09:57:20 20° 68° (ENE) 10:00:35 145.880/145.840
AIST 2 02 Feb 09:56:49 09:58:58 14° 41° (NE) 10:01:15 435.215
AAUSAT CUBESAT 2 02 Feb 09:57:25 10:01:35 85° 280° (W) 10:05:43 437.432
VERMONT LUNAR 02 Feb 10:00:57 10:04:25 69° 4° (N) 10:07:54 437.305
SO-50 02 Feb 10:01:13 10:05:46 74° 303° (WNW) 10:10:30 436.795
QB50P1 02 Feb 10:01:38 10:05:01 24° 69° (ENE) 10:08:32 145.935-145.965
CANX-2 02 Feb 10:02:27 10:06:26 40° 287° (WNW) 10:10:23 2200.000
ZACube-1 02 Feb 10:08:55 10:12:38 27° 95° (E) 10:16:19 437.345
DX 1 02 Feb 10:11:10 10:15:09 33° 97° (E) 10:19:10 434.975-435.025
ANTELSAT 02 Feb 10:12:53 10:17:31 58° 74° (ENE) 10:22:08 437.575/2403.000
TIGRISAT 02 Feb 10:17:54 10:22:34 64° 75° (ENE) 10:27:12 435.000
POLYITAN 1 02 Feb 10:18:49 10:22:47 37° 72° (ENE) 10:26:49 437.675
FUNcube-1 02 Feb 10:19:08 10:23:08 35° 96° (E) 10:27:03 145.935
CUBEBUG 2 02 Feb 10:20:31 10:24:57 56° 99° (E) 10:29:13 437.445
DOVE 4 02 Feb 10:24:21 10:29:14 44° 288° (WNW) 10:33:48 437.250
CUTE 1.7 + AOD 2 02 Feb 10:26:22 10:29:51 25° 290° (WNW) 10:33:15 437.475
GOMX 1 02 Feb 10:33:29 10:38:04 29° 292° (WNW) 10:42:20 467.674
AIST 1 02 Feb 10:33:40 10:36:56 22° 89° (E) 10:40:19
DUCHIFAT 1 02 Feb 10:36:04 10:40:16 57° 74° (ENE) 10:44:30 145.980
POPSAT HIP 1 02 Feb 10:36:07 10:40:20 58° 74° (ENE) 10:44:36 437.405
Oscar 11 02 Feb 10:42:59 10:47:13 55° 286° (WNW) 10:51:24 145.826/435.025
UWE-3 02 Feb 10:51:02 10:55:30 79° 283° (WNW) 10:59:47 435.000/436.395/437.385
SEEDS 02 Feb 10:51:25 10:54:05 16° 292° (WNW) 10:56:34 437.485
HO-68 02 Feb 10:52:07 10:58:25 34° 296° (WNW) 11:04:35 435.675
AISAT 02 Feb 10:56:48 11:01:04 41° 98° (E) 11:05:21 437.250
BRITE-PL 02 Feb 11:02:43 11:05:18 13° 299° (WNW) 11:07:34 437.365/2234.400
